Location: Keewatin
(47.4004°N, 93.0827°W)
Time: 19:27:28
(UTC+00:00)

Envisat - Pass Details

Date: 15 December 2019
Orbit: 764 x 766 km, 98.1° (Epoch: 28 January)

Event Time Altitude Azimuth Distance (km) Brightness Sun altitude
Rises 13:13:12 0° 13° (NNE) 3,246 6.1 -6.6°
Reaches altitude 10° 13:15:31 10° 13° (NNE) 2,315 5.3 -6.2°
Maximum altitude 13:20:38 85° 285° (WNW) 775 3.0 -5.5°
Drops below altitude 10° 13:25:42 10° 198° (SSW) 2,296 5.6 -4.7°
Sets 13:27:59 0° 197° (SSW) 3,218 6.4 -4.4°
